Location: Eldred Sherwood Park Lake Dam
(42.9416°N, 93.5655°W)
Time: 09:30:37
(UTC+00:00)

Tiros 1 - Pass Details

Date: 10 November 2024
Orbit: 622 x 653 km, 48.4° (Epoch: 06 December)

Event Time Altitude Azimuth Distance (km) Brightness Sun altitude
Rises 00:31:34 0° 232° (SW) 2,944 11.6 -17.7°
Reaches altitude 10° 00:33:54 10° 229° (SW) 2,041 10.5 -18.1°
Maximum altitude 00:38:33 64° 148° (SSE) 722 7.2 -18.9°
Enters shadow 00:39:58 42° 86° (E) 927 7.4 -19.2°
